Regional Weather Roundup
Issued by NWS Jackson, KY

Home | Current Version | Previous Version | Text Only | Print | Product List | Glossary On
Versions: 1 2 3 4 5 6 7 8 9 10 11 12 13 14 15 16 17 18 19 20 21 22 23 24 25 26 27 28 29 30 31 32 33 34 35 36 37 38 39 40 41 42 43 44 45 46 47 48 49 50
000
ASUS43 KJKL 260119
RWRJKL

EAST KENTUCKY HOURLY WEATHER ROUNDUP
NATIONAL WEATHER SERVICE JACKSON KY
800 PM EST SUN JAN 25 2015

NOTE: "FAIR" INDICATES FEW OR NO CLOUDS BELOW 12,000 FEET WITH
NO SIGNIFICANT WEATHER AND/OR OBSTRUCTIONS TO VISIBILITY.

* THESE REPORTS ARE NOT UNDER NWS QUALITY CONTROL AND MAY NOT
  REPORT WEATHER SUCH AS PRECIPITATION AND FOG.

KYZ079-080-083-085-087-088-110-112-115-119-120-260200
...EASTERN KENTUCKY...

CITY           SKY/WX    TMP DP  RH WIND       PRES   REMARKS
JACKSON        LGT RAIN  43  37  79 CALM      29.68S
LONDON         CLOUDY    47  30  51 S5        29.67R
SOMERSET*      DRIZZLE   45  37  76 W13       29.70R
MONTICELLO*    MOCLDY    45  43  93 SW8       29.71R FOG
MIDDLESBORO*   CLOUDY    49  32  51 S6        29.70S
HARLAN APT*    CLOUDY    46  32  57 CALM      29.69S
HAZARD APT*    CLOUDY    45  36  70 CALM      29.68F
PIKEVILLE APT* CLOUDY    45  34  65 CALM      29.70F
BIG SANDY*     DRIZZLE   46  37  70 CALM      29.71F
MOREHEAD APT*  CLOUDY    43  36  75 SE3       29.70S
ASHLAND*       CLOUDY   N/A N/A N/A E3        29.70S
$$

KYZ035-036-041-042-044-050-067-078-099-260200
...CENTRAL KENTUCKY...

CITY           SKY/WX    TMP DP  RH WIND       PRES   REMARKS
MT STERLING*   LGT RAIN  43  39  87 SW7       29.69R
FLEMING/MASON* DRIZZLE   36  34  93 E5        29.70S WCI  32
DANVILLE*      RAIN      41  41 100 W6        29.68R
RICHMOND*      CLOUDY    45  37  76 CALM      29.65F
LEXINGTON      LGT RAIN  41  39  93 SE3       29.67S
FRANKFORT      LGT RAIN  40  38  93 SE5       29.66S FOG
$$

KYZ091>093-OHZ055-061-077-WVZ005-015-034-035-042-260200
...SOUTHERN OHIO/WEST VIRGINIA...

CITY           SKY/WX    TMP DP  RH WIND       PRES   REMARKS
COVINGTON      RAIN      39  37  92 NE7       29.68R FOG     WCI  34
COLUMBUS       LGT SNOW  32  31  96 NE5       29.75R FOG     WCI  27
DAYTON         LGT SNOW  28  25  88 NE16      29.76R FOG     WCI  16
WILMINGTON     LGT RAIN  35  33  92 NE8       29.71S FOG     WCI  29
HUNTINGTON     LGT RAIN  40  38  93 CALM      29.71R
CHARLESTON     CLOUDY    41  36  82 CALM      29.70S
PINEVILLE*     CLOUDY    44  39  83 MISG      29.77R
BECKLEY        CLOUDY    40  31  70 SE7       29.71R
BLUEFIELD      CLOUDY    43  30  60 SW5       29.73R
$$

VAZ002-007-008-TNZ017-027-036-066-071-260200
...SOUTHWEST VIRGINIA/EAST TENNESSEE...

CITY           SKY/WX    TMP DP  RH WIND       PRES   REMARKS
WISE*          CLOUDY    43  28  56 S3        29.70F
JONESVILLE*    CLOUDY    41  36  81 CALM      29.73S
ABINGDON*      CLOUDY    44  33  64 CALM      29.72F
BRISTOL        CLOUDY    46  34  62 CALM      29.72S
KNOXVILLE      CLOUDY    49  36  61 S9        29.72R
OAK RIDGE      CLOUDY    52  34  50 S10G17    29.73R
CROSSVILLE     CLOUDY    46  36  68 S6        29.69S
NASHVILLE      CLOUDY    46  41  81 W7        29.71R
$$

...KEY TO REMARKS...
VSB - VISIBILITY IN MILES
WCI - WIND CHILL INDEX
HX  - HEAT INDEX

$$



USA.gov is the U.S. government's official web portal to all federal, state and local government web resources and services.